Tracking 22879 objects as of 21-Apr-2021
HD Live streaming from Space Station
objects crossing your sky now

STARLINK-2092

Track STARLINK-2092 now!
10-day predictions
STARLINK-2092 is classified as:


NORAD ID: 47373
Int'l Code: 2021-005AA
Perigee: 553.7 km
Apogee: 555.1 km
Inclination: 53.1 °
Period: 95.6 minutes
Semi major axis: 6925 km
RCS: Unknown
Launch date: January 20, 2021
Source: United States (US)
Launch site: AIR FORCE EASTERN TEST RANGE (AFETR)
aabbcc
Your satellite tracking list
Your tracking list is empty




NASA's NSSDC Master Catalog

Two Line Element Set (TLE):
1 47373U 21005AA  21110.91667824  .00025186  00000-0  17047-2 0  9993
2 47373  53.0558 149.2876 0000964  75.0030  72.2554 15.06378666 14180
Source of the keplerian elements: AFSPC